TimeEST,TemperatureF,Dew PointF,Humidity,Sea Level PressureIn,VisibilityMPH,Wind Direction,Wind SpeedMPH,Gust SpeedMPH,PrecipitationIn,Events,Conditions,WindDirDegrees,DateUTC
12:15 AM,23.0,15.8,74,30.19,10.0,Calm,Calm,-,N/A,,Clear,0,2013-02-21 05:15:00
12:35 AM,21.2,17.6,86,30.21,10.0,Calm,Calm,-,N/A,,Clear,0,2013-02-21 05:35:00
12:55 AM,19.4,17.6,93,30.21,10.0,Calm,Calm,-,N/A,,Clear,0,2013-02-21 05:55:00
1:15 AM,19.4,17.6,93,30.21,10.0,Calm,Calm,-,N/A,,Clear,0,2013-02-21 06:15:00
1:35 AM,17.6,15.8,93,30.21,10.0,Calm,Calm,-,N/A,,Clear,0,2013-02-21 06:35:00
1:55 AM,19.4,15.8,86,30.22,10.0,Calm,Calm,-,N/A,,Clear,0,2013-02-21 06:55:00
2:15 AM,19.4,15.8,86,30.22,10.0,Calm,Calm,-,N/A,,Clear,0,2013-02-21 07:15:00
2:35 AM,19.4,17.6,93,30.22,10.0,Calm,Calm,-,N/A,,Clear,0,2013-02-21 07:35:00
2:55 AM,19.4,15.8,86,30.22,10.0,Calm,Calm,-,N/A,,Clear,0,2013-02-21 07:55:00
3:15 AM,17.6,15.8,93,30.22,10.0,Calm,Calm,-,N/A,,Clear,0,2013-02-21 08:15:00
3:35 AM,17.6,15.8,93,30.22,10.0,Calm,Calm,-,N/A,,Clear,0,2013-02-21 08:35:00
3:55 AM,19.4,15.8,86,30.21,10.0,Calm,Calm,-,N/A,,Clear,0,2013-02-21 08:55:00
4:15 AM,17.6,15.8,93,30.21,10.0,Calm,Calm,-,N/A,,Clear,0,2013-02-21 09:15:00
4:35 AM,17.6,15.8,93,30.21,10.0,Calm,Calm,-,N/A,,Clear,0,2013-02-21 09:35:00
4:55 AM,17.6,15.8,93,30.22,10.0,Calm,Calm,-,N/A,,Clear,0,2013-02-21 09:55:00
5:15 AM,17.6,15.8,93,30.22,10.0,Calm,Calm,-,N/A,,Clear,0,2013-02-21 10:15:00
5:35 AM,17.6,15.8,93,30.23,10.0,Calm,Calm,-,N/A,,Clear,0,2013-02-21 10:35:00
5:55 AM,17.6,15.8,93,30.23,10.0,Calm,Calm,-,N/A,,Clear,0,2013-02-21 10:55:00
6:15 AM,17.6,15.8,93,30.23,10.0,Calm,Calm,-,N/A,,Clear,0,2013-02-21 11:15:00
7:15 AM,17.6,15.8,93,30.24,10.0,Calm,Calm,-,N/A,,Clear,0,2013-02-21 12:15:00
7:35 AM,17.6,15.8,93,30.25,10.0,Calm,Calm,-,N/A,,Clear,0,2013-02-21 12:35:00
7:55 AM,19.4,15.8,86,30.26,10.0,Calm,Calm,-,N/A,,Clear,0,2013-02-21 12:55:00
8:15 AM,21.2,17.6,86,30.25,10.0,Calm,Calm,-,N/A,,Clear,0,2013-02-21 13:15:00
8:35 AM,24.8,17.6,74,30.26,10.0,Calm,Calm,-,N/A,,Clear,0,2013-02-21 13:35:00
8:55 AM,26.6,17.6,69,30.26,10.0,Calm,Calm,-,N/A,,Clear,0,2013-02-21 13:55:00
9:15 AM,26.6,17.6,69,30.27,10.0,Calm,Calm,-,N/A,,Clear,0,2013-02-21 14:15:00
9:35 AM,28.4,15.8,59,30.27,10.0,East,3.5,-,N/A,,Clear,80,2013-02-21 14:35:00
9:55 AM,30.2,15.8,55,30.27,10.0,East,3.5,-,N/A,,Clear,90,2013-02-21 14:55:00
10:15 AM,32.0,15.8,51,30.26,10.0,Calm,Calm,-,N/A,,Clear,0,2013-02-21 15:15:00
10:35 AM,33.8,15.8,48,30.24,10.0,East,6.9,-,N/A,,Clear,100,2013-02-21 15:35:00
10:55 AM,35.6,15.8,44,30.24,10.0,ESE,4.6,-,N/A,,Clear,110,2013-02-21 15:55:00
11:15 AM,35.6,15.8,44,30.22,10.0,ESE,5.8,-,N/A,,Clear,110,2013-02-21 16:15:00
11:35 AM,37.4,15.8,41,30.22,10.0,East,6.9,-,N/A,,Clear,100,2013-02-21 16:35:00
11:55 AM,39.2,14.0,36,30.20,10.0,East,5.8,-,N/A,,Clear,100,2013-02-21 16:55:00
12:15 PM,39.2,15.8,39,30.20,10.0,SE,3.5,-,N/A,,Clear,140,2013-02-21 17:15:00
12:35 PM,41.0,15.8,36,30.19,10.0,Calm,Calm,-,N/A,,Clear,0,2013-02-21 17:35:00
12:55 PM,42.8,15.8,34,30.17,10.0,ESE,6.9,-,N/A,,Clear,110,2013-02-21 17:55:00
1:15 PM,44.6,14.0,29,30.16,10.0,Calm,Calm,-,N/A,,Clear,0,2013-02-21 18:15:00
1:35 PM,44.6,14.0,29,30.14,10.0,East,5.8,-,N/A,,Clear,90,2013-02-21 18:35:00
1:55 PM,46.4,14.0,27,30.13,10.0,NE,4.6,-,N/A,,Clear,40,2013-02-21 18:55:00
2:15 PM,48.2,15.8,27,30.13,10.0,ENE,4.6,-,N/A,,Clear,70,2013-02-21 19:15:00
2:35 PM,48.2,12.2,24,30.12,10.0,Calm,Calm,-,N/A,,Clear,0,2013-02-21 19:35:00
2:55 PM,48.2,12.2,24,30.12,10.0,NE,3.5,-,N/A,,Clear,40,2013-02-21 19:55:00
3:15 PM,48.2,14.0,25,30.11,10.0,Calm,Calm,-,N/A,,Clear,0,2013-02-21 20:15:00
3:35 PM,50.0,14.0,24,30.11,10.0,ESE,3.5,-,N/A,,Clear,110,2013-02-21 20:35:00
3:55 PM,50.0,14.0,24,30.10,10.0,ESE,4.6,-,N/A,,Clear,110,2013-02-21 20:55:00
4:15 PM,50.0,14.0,24,30.10,10.0,East,4.6,-,N/A,,Clear,100,2013-02-21 21:15:00
4:35 PM,50.0,15.8,26,30.09,10.0,East,3.5,-,N/A,,Clear,100,2013-02-21 21:35:00
4:55 PM,50.0,15.8,26,30.08,10.0,ESE,5.8,-,N/A,,Clear,110,2013-02-21 21:55:00
5:15 PM,48.2,15.8,27,30.08,10.0,ESE,3.5,-,N/A,,Clear,110,2013-02-21 22:15:00
5:35 PM,48.2,17.6,30,30.07,10.0,East,3.5,-,N/A,,Clear,100,2013-02-21 22:35:00
5:55 PM,48.2,17.6,30,30.09,10.0,East,4.6,-,N/A,,Clear,100,2013-02-21 22:55:00
6:15 PM,46.4,17.6,32,30.08,10.0,Calm,Calm,-,N/A,,Clear,0,2013-02-21 23:15:00
6:35 PM,46.4,17.6,32,30.06,10.0,ENE,4.6,-,N/A,,Clear,60,2013-02-21 23:35:00
6:55 PM,46.4,17.6,32,30.05,10.0,East,4.6,-,N/A,,Clear,80,2013-02-21 23:55:00
7:15 PM,46.4,17.6,32,30.06,10.0,ENE,4.6,-,N/A,,Clear,70,2013-02-22 00:15:00
7:35 PM,44.6,17.6,34,30.06,10.0,NNE,3.5,-,N/A,,Scattered Clouds,20,2013-02-22 00:35:00
7:55 PM,44.6,21.2,39,30.06,10.0,ENE,3.5,-,N/A,,Mostly Cloudy,60,2013-02-22 00:55:00
8:15 PM,44.6,24.8,46,30.08,10.0,Calm,Calm,-,N/A,Rain,Light Rain,0,2013-02-22 01:15:00
8:35 PM,42.8,32.0,66,30.09,10.0,Calm,Calm,-,N/A,Rain,Light Rain,0,2013-02-22 01:35:00
8:55 PM,39.2,32.0,75,30.09,9.0,North,3.5,-,0.02,Rain,Light Rain,360,2013-02-22 01:55:00
9:15 PM,39.2,35.6,87,30.11,8.0,Calm,Calm,-,0.01,Rain,Light Rain,0,2013-02-22 02:15:00
9:35 PM,39.2,37.4,93,30.11,5.0,Calm,Calm,-,0.03,Rain,Light Rain,0,2013-02-22 02:35:00
9:55 PM,37.4,37.4,100,30.11,8.0,NE,3.5,-,0.04,Rain,Light Rain,50,2013-02-22 02:55:00
10:15 PM,37.4,37.4,100,30.11,5.0,NE,3.5,-,0.01,Rain,Light Rain,50,2013-02-22 03:15:00
10:35 PM,37.4,37.4,100,30.12,5.0,NNE,4.6,-,0.04,Rain,Light Rain,20,2013-02-22 03:35:00
10:55 PM,37.4,35.6,93,30.12,5.0,Calm,Calm,-,0.07,Rain,Light Rain,0,2013-02-22 03:55:00
11:15 PM,37.4,35.6,93,30.12,4.0,ENE,8.1,-,0.02,Rain,Rain,60,2013-02-22 04:15:00
11:35 PM,37.4,35.6,93,30.13,5.0,Calm,Calm,-,0.05,Rain,Light Rain,0,2013-02-22 04:35:00
11:55 PM,37.4,37.4,100,30.11,5.0,NNE,5.8,-,0.07,Rain,Light Rain,30,2013-02-22 04:55:00